Location: Epalinges
(46.5518°N, 6.6683°E)
Time: 20:09:24
(UTC+00:00)

Cosmos 1782 - Pass Details

Date: 20 June 2021
Orbit: 537 x 550 km, 82.5° (Epoch: 01 August)

Event Time Altitude Azimuth Distance (km) Brightness Sun altitude
Rises 02:10:06 0° 349° (N) 2,720 7.1 -11.7°
Reaches altitude 10° 02:12:15 10° 349° (N) 1,824 6.1 -11.5°
Maximum altitude 02:16:16 80° 263° (W) 561 2.7 -11.1°
Drops below altitude 10° 02:20:16 10° 176° (S) 1,816 5.0 -10.7°
Enters shadow 02:20:47 - 176° (S) 2,028 5.3 -10.6°
